Time,TemperatureF,DewpointF,PressureIn,WindDirection,WindDirectionDegrees,WindSpeedMPH,WindSpeedGustMPH,Humidity,HourlyPrecipIn,Conditions,Clouds,dailyrainin,SoftwareType,DateUTC
2013-08-21 00:06:00,71.9,71.0,30.14,NNW,337,0.0,-999.0,95,-99.99,,,0.00,weatherlink.com 1.10,2013-08-21 04:06:00,
2013-08-21 00:21:00,72.0,71.0,30.14,NNW,337,0.0,-999.0,95,-99.99,,,0.00,weatherlink.com 1.10,2013-08-21 04:21:00,
2013-08-21 00:36:00,72.0,71.0,30.14,NNW,337,0.0,-999.0,95,-99.99,,,0.00,weatherlink.com 1.10,2013-08-21 04:36:00,
2013-08-21 00:51:00,72.0,71.0,30.14,NW,310,0.0,-999.0,95,-99.99,,,0.00,weatherlink.com 1.10,2013-08-21 04:51:00,
2013-08-21 01:06:00,71.8,70.0,30.14,NW,310,0.0,-999.0,95,-99.99,,,0.00,weatherlink.com 1.10,2013-08-21 05:06:00,
2013-08-21 01:21:00,71.8,71.0,30.14,NW,310,0.0,-999.0,96,-99.99,,,0.00,weatherlink.com 1.10,2013-08-21 05:21:00,
2013-08-21 01:36:00,71.8,71.0,30.14,NW,310,0.0,-999.0,96,-99.99,,,0.00,weatherlink.com 1.10,2013-08-21 05:36:00,
2013-08-21 01:51:00,71.6,70.0,30.13,NW,310,0.0,-999.0,96,-99.99,,,0.00,weatherlink.com 1.10,2013-08-21 05:51:00,
2013-08-21 02:06:00,71.6,70.0,30.13,West,266,1.0,-999.0,96,-99.99,,,0.00,weatherlink.com 1.10,2013-08-21 06:06:00,
2013-08-21 02:21:00,71.5,70.0,30.13,West,266,0.0,-999.0,96,-99.99,,,0.00,weatherlink.com 1.10,2013-08-21 06:21:00,
2013-08-21 02:36:00,71.4,70.0,30.13,West,266,0.0,-999.0,96,-99.99,,,0.00,weatherlink.com 1.10,2013-08-21 06:36:00,
2013-08-21 02:51:00,71.2,70.0,30.13,West,266,0.0,-999.0,96,-99.99,,,0.00,weatherlink.com 1.10,2013-08-21 06:51:00,
2013-08-21 03:06:00,71.2,70.0,30.13,NNW,341,1.0,-999.0,96,-99.99,,,0.00,weatherlink.com 1.10,2013-08-21 07:06:00,
2013-08-21 03:21:00,71.1,70.0,30.13,NNW,341,0.0,-999.0,96,-99.99,,,0.00,weatherlink.com 1.10,2013-08-21 07:21:00,
2013-08-21 03:36:00,71.0,70.0,30.12,NNW,341,0.0,-999.0,96,-99.99,,,0.00,weatherlink.com 1.10,2013-08-21 07:36:00,
2013-08-21 03:51:00,70.9,70.0,30.12,WNW,291,0.0,-999.0,96,-99.99,,,0.00,weatherlink.com 1.10,2013-08-21 07:51:00,
2013-08-21 04:06:00,70.9,70.0,30.12,WNW,291,0.0,-999.0,96,-99.99,,,0.00,weatherlink.com 1.10,2013-08-21 08:06:00,
2013-08-21 04:21:00,70.9,70.0,30.12,WNW,291,0.0,-999.0,96,-99.99,,,0.00,weatherlink.com 1.10,2013-08-21 08:21:00,
2013-08-21 04:36:00,70.7,70.0,30.12,WNW,293,0.0,-999.0,96,-99.99,,,0.00,weatherlink.com 1.10,2013-08-21 08:36:00,
2013-08-21 04:51:00,70.7,70.0,30.12,WNW,294,0.0,-999.0,96,-99.99,,,0.00,weatherlink.com 1.10,2013-08-21 08:51:00,
2013-08-21 05:06:00,70.6,70.0,30.12,NNE,13,0.0,-999.0,96,-99.99,,,0.00,weatherlink.com 1.10,2013-08-21 09:06:00,
2013-08-21 05:21:00,70.7,70.0,30.12,North,10,0.0,-999.0,96,-99.99,,,0.00,weatherlink.com 1.10,2013-08-21 09:21:00,
2013-08-21 05:36:00,70.6,70.0,30.12,North,10,0.0,-999.0,96,-99.99,,,0.00,weatherlink.com 1.10,2013-08-21 09:36:00,
2013-08-21 05:51:00,70.5,69.0,30.12,North,11,0.0,-999.0,96,-99.99,,,0.00,weatherlink.com 1.10,2013-08-21 09:51:00,
2013-08-21 06:06:00,70.3,69.0,30.13,North,11,0.0,-999.0,96,-99.99,,,0.00,weatherlink.com 1.10,2013-08-21 10:06:00,
2013-08-21 06:21:00,70.4,69.0,30.13,North,11,0.0,-999.0,96,-99.99,,,0.00,weatherlink.com 1.10,2013-08-21 10:21:00,
2013-08-21 06:36:00,70.4,69.0,30.14,North,11,0.0,-999.0,96,-99.99,,,0.00,weatherlink.com 1.10,2013-08-21 10:36:00,
2013-08-21 06:51:00,70.6,70.0,30.15,North,11,0.0,-999.0,96,-99.99,,,0.00,weatherlink.com 1.10,2013-08-21 10:51:00,
2013-08-21 07:06:00,70.6,70.0,30.15,North,11,0.0,-999.0,96,-99.99,,,0.00,weatherlink.com 1.10,2013-08-21 11:06:00,
2013-08-21 07:21:00,70.5,69.0,30.16,North,11,0.0,-999.0,96,-99.99,,,0.00,weatherlink.com 1.10,2013-08-21 11:21:00,
2013-08-21 07:36:00,70.4,69.0,30.16,North,11,0.0,-999.0,96,-99.99,,,0.00,weatherlink.com 1.10,2013-08-21 11:36:00,
2013-08-21 07:51:00,70.4,69.0,30.17,North,11,0.0,-999.0,96,-99.99,,,0.00,weatherlink.com 1.10,2013-08-21 11:51:00,
2013-08-21 08:06:00,70.4,70.0,30.17,North,11,0.0,-999.0,97,-99.99,,,0.00,weatherlink.com 1.10,2013-08-21 12:06:00,
2013-08-21 08:21:00,70.3,69.0,30.17,North,11,0.0,-999.0,97,-99.99,,,0.00,weatherlink.com 1.10,2013-08-21 12:21:00,
2013-08-21 08:36:00,70.5,70.0,30.18,North,11,0.0,-999.0,97,-99.99,,,0.00,weatherlink.com 1.10,2013-08-21 12:36:00,
2013-08-21 08:51:00,70.5,70.0,30.18,North,11,0.0,-999.0,97,-99.99,,,0.00,weatherlink.com 1.10,2013-08-21 12:51:00,
2013-08-21 09:06:00,71.0,70.0,30.18,North,11,0.0,-999.0,97,-99.99,,,0.00,weatherlink.com 1.10,2013-08-21 13:06:00,
2013-08-21 09:21:00,72.2,71.0,30.18,North,11,0.0,-999.0,96,-99.99,,,0.00,weatherlink.com 1.10,2013-08-21 13:21:00,
2013-08-21 09:36:00,71.9,70.0,30.17,North,11,0.0,-999.0,94,-99.99,,,0.00,weatherlink.com 1.10,2013-08-21 13:36:00,
2013-08-21 09:51:00,71.7,71.0,30.18,SW,220,0.0,-999.0,96,-99.99,,,0.00,weatherlink.com 1.10,2013-08-21 13:51:00,
2013-08-21 10:06:00,71.9,71.0,30.18,South,170,0.0,-999.0,95,-99.99,,,0.00,weatherlink.com 1.10,2013-08-21 14:06:00,
2013-08-21 10:21:00,72.1,71.0,30.18,South,187,0.0,-999.0,95,-99.99,,,0.00,weatherlink.com 1.10,2013-08-21 14:21:00,
2013-08-21 10:36:00,72.8,71.0,30.18,WSW,249,0.0,-999.0,94,-99.99,,,0.00,weatherlink.com 1.10,2013-08-21 14:36:00,
2013-08-21 10:51:00,73.3,71.0,30.18,WSW,238,0.0,-999.0,93,-99.99,,,0.00,weatherlink.com 1.10,2013-08-21 14:51:00,
2013-08-21 11:06:00,73.7,71.0,30.18,SSW,212,0.0,-999.0,91,-99.99,,,0.00,weatherlink.com 1.10,2013-08-21 15:06:00,
2013-08-21 11:21:00,74.3,72.0,30.19,SW,222,0.0,-999.0,91,-99.99,,,0.00,weatherlink.com 1.10,2013-08-21 15:21:00,
2013-08-21 11:36:00,74.1,71.0,30.19,NNE,18,0.0,-999.0,91,-99.99,,,0.00,weatherlink.com 1.10,2013-08-21 15:36:00,
2013-08-21 11:51:00,74.9,72.0,30.18,West,269,0.0,-999.0,89,-99.99,,,0.01,weatherlink.com 1.10,2013-08-21 15:51:00,
2013-08-21 12:06:00,74.3,72.0,30.18,West,264,0.0,-999.0,91,-99.99,,,0.01,weatherlink.com 1.10,2013-08-21 16:06:00,
2013-08-21 12:21:00,74.2,72.0,30.18,NNE,23,1.0,-999.0,91,-99.99,,,0.01,weatherlink.com 1.10,2013-08-21 16:21:00,
2013-08-21 12:36:00,73.8,71.0,30.18,NNE,25,0.0,-999.0,92,-99.99,,,0.01,weatherlink.com 1.10,2013-08-21 16:36:00,
2013-08-21 12:51:00,73.5,71.0,30.19,North,8,0.0,-999.0,92,-99.99,,,0.01,weatherlink.com 1.10,2013-08-21 16:51:00,
2013-08-21 13:06:00,73.1,71.0,30.18,North,351,0.0,-999.0,93,-99.99,,,0.01,weatherlink.com 1.10,2013-08-21 17:06:00,
2013-08-21 13:21:00,72.9,71.0,30.18,NNW,342,0.0,-999.0,94,-99.99,,,0.01,weatherlink.com 1.10,2013-08-21 17:21:00,
2013-08-21 13:36:00,71.5,69.0,30.17,ESE,110,0.0,-999.0,93,-99.99,,,0.01,weatherlink.com 1.10,2013-08-21 17:36:00,
2013-08-21 13:51:00,72.1,70.0,30.17,WNW,297,0.0,-999.0,94,-99.99,,,0.01,weatherlink.com 1.10,2013-08-21 17:51:00,
2013-08-21 14:06:00,73.2,71.0,30.18,SSW,207,0.0,-999.0,94,-99.99,,,0.01,weatherlink.com 1.10,2013-08-21 18:06:00,
2013-08-21 14:21:00,72.5,70.0,30.18,NW,324,0.0,-999.0,93,-99.99,,,0.01,weatherlink.com 1.10,2013-08-21 18:21:00,
2013-08-21 14:36:00,72.4,70.0,30.17,NW,307,0.0,-999.0,93,-99.99,,,0.01,weatherlink.com 1.10,2013-08-21 18:36:00,
2013-08-21 14:51:00,72.2,70.0,30.16,WNW,295,0.0,-999.0,93,-99.99,,,0.01,weatherlink.com 1.10,2013-08-21 18:51:00,
2013-08-21 15:06:00,72.2,71.0,30.15,WNW,295,0.0,-999.0,95,-99.99,,,0.01,weatherlink.com 1.10,2013-08-21 19:06:00,
2013-08-21 15:21:00,71.9,71.0,30.16,WNW,296,0.0,-999.0,95,-99.99,,,0.01,weatherlink.com 1.10,2013-08-21 19:21:00,
2013-08-21 15:36:00,71.9,71.0,30.14,WNW,296,0.0,-999.0,95,-99.99,,,0.01,weatherlink.com 1.10,2013-08-21 19:36:00,
2013-08-21 15:51:00,71.9,71.0,30.14,WNW,296,0.0,-999.0,95,-99.99,,,0.01,weatherlink.com 1.10,2013-08-21 19:51:00,
2013-08-21 16:06:00,71.8,71.0,30.13,WNW,296,0.0,-999.0,96,-99.99,,,0.01,weatherlink.com 1.10,2013-08-21 20:06:00,
2013-08-21 16:21:00,71.7,71.0,30.14,WNW,295,0.0,-999.0,96,-99.99,,,0.01,weatherlink.com 1.10,2013-08-21 20:21:00,
2013-08-21 16:36:00,71.4,70.0,30.14,WNW,295,0.0,-999.0,95,-99.99,,,0.01,weatherlink.com 1.10,2013-08-21 20:36:00,
2013-08-21 16:51:00,71.2,70.0,30.13,SSE,152,0.0,-999.0,96,-99.99,,,0.01,weatherlink.com 1.10,2013-08-21 20:51:00,
2013-08-21 17:06:00,71.2,70.0,30.13,SSE,152,0.0,-999.0,96,-99.99,,,0.01,weatherlink.com 1.10,2013-08-21 21:06:00,
2013-08-21 17:21:00,71.1,70.0,30.12,SSE,152,0.0,-999.0,96,-99.99,,,0.01,weatherlink.com 1.10,2013-08-21 21:21:00,
2013-08-21 17:36:00,71.2,70.0,30.10,SSE,152,0.0,-999.0,95,-99.99,,,0.01,weatherlink.com 1.10,2013-08-21 21:36:00,
2013-08-21 17:51:00,72.1,71.0,30.11,SSE,152,0.0,-999.0,95,-99.99,,,0.01,weatherlink.com 1.10,2013-08-21 21:51:00,
2013-08-21 18:06:00,73.6,72.0,30.12,SSE,162,0.0,-999.0,95,-99.99,,,0.01,weatherlink.com 1.10,2013-08-21 22:06:00,
2013-08-21 18:21:00,74.6,72.0,30.11,WSW,256,1.0,-999.0,91,-99.99,,,0.01,weatherlink.com 1.10,2013-08-21 22:21:00,
2013-08-21 18:36:00,74.8,72.0,30.11,WSW,242,0.0,-999.0,92,-99.99,,,0.01,weatherlink.com 1.10,2013-08-21 22:36:00,
2013-08-21 18:51:00,74.4,73.0,30.10,SW,229,0.0,-999.0,94,-99.99,,,0.01,weatherlink.com 1.10,2013-08-21 22:51:00,
2013-08-21 19:06:00,73.2,71.0,30.11,SW,229,0.0,-999.0,94,-99.99,,,0.01,weatherlink.com 1.10,2013-08-21 23:06:00,
2013-08-21 19:21:00,73.6,72.0,30.11,SW,229,0.0,-999.0,95,-99.99,,,0.01,weatherlink.com 1.10,2013-08-21 23:21:00,
2013-08-21 19:36:00,73.5,72.0,30.11,SW,229,0.0,-999.0,95,-99.99,,,0.01,weatherlink.com 1.10,2013-08-21 23:36:00,
2013-08-21 19:51:00,72.5,71.0,30.11,SW,229,0.0,-999.0,96,-99.99,,,0.01,weatherlink.com 1.10,2013-08-21 23:51:00,
2013-08-21 20:06:00,72.0,71.0,30.12,SW,229,0.0,-999.0,96,-99.99,,,0.01,weatherlink.com 1.10,2013-08-22 00:06:00,
2013-08-21 20:21:00,71.7,71.0,30.12,SW,229,0.0,-999.0,97,-99.99,,,0.01,weatherlink.com 1.10,2013-08-22 00:21:00,
2013-08-21 20:36:00,71.2,70.0,30.11,SW,229,0.0,-999.0,97,-99.99,,,0.01,weatherlink.com 1.10,2013-08-22 00:36:00,
2013-08-21 20:51:00,70.9,70.0,30.12,SW,229,0.0,-999.0,97,-99.99,,,0.01,weatherlink.com 1.10,2013-08-22 00:51:00,
2013-08-21 21:06:00,70.9,70.0,30.12,SW,229,0.0,-999.0,97,-99.99,,,0.01,weatherlink.com 1.10,2013-08-22 01:06:00,
2013-08-21 21:21:00,70.8,70.0,30.14,SW,229,0.0,-999.0,96,-99.99,,,0.01,weatherlink.com 1.10,2013-08-22 01:21:00,
2013-08-21 21:36:00,70.5,70.0,30.14,SW,229,0.0,-999.0,97,-99.99,,,0.01,weatherlink.com 1.10,2013-08-22 01:36:00,
2013-08-21 21:51:00,70.5,69.0,30.15,SW,229,0.0,-999.0,96,-99.99,,,0.01,weatherlink.com 1.10,2013-08-22 01:51:00,
2013-08-21 22:06:00,70.6,70.0,30.15,SW,229,0.0,-999.0,96,-99.99,,,0.01,weatherlink.com 1.10,2013-08-22 02:06:00,
2013-08-21 22:21:00,70.4,70.0,30.16,SW,229,0.0,-999.0,97,-99.99,,,0.01,weatherlink.com 1.10,2013-08-22 02:21:00,
2013-08-21 22:36:00,70.3,69.0,30.16,SW,229,0.0,-999.0,97,-99.99,,,0.01,weatherlink.com 1.10,2013-08-22 02:36:00,
2013-08-21 22:51:00,70.4,70.0,30.15,SW,229,0.0,-999.0,97,-99.99,,,0.01,weatherlink.com 1.10,2013-08-22 02:51:00,
2013-08-21 23:06:00,70.5,70.0,30.15,SW,229,0.0,-999.0,97,-99.99,,,0.01,weatherlink.com 1.10,2013-08-22 03:06:00,
2013-08-21 23:21:00,70.3,69.0,30.15,SW,229,0.0,-999.0,97,-99.99,,,0.01,weatherlink.com 1.10,2013-08-22 03:21:00,
2013-08-21 23:36:00,70.4,70.0,30.14,SW,229,0.0,-999.0,97,-99.99,,,0.01,weatherlink.com 1.10,2013-08-22 03:36:00,
2013-08-21 23:51:00,70.1,69.0,30.13,SW,229,0.0,-999.0,97,-99.99,,,0.01,weatherlink.com 1.10,2013-08-22 03:51:00,